Погода Иваново

Погода Иваново : погода сейчас, прогноз погоды и архив. Всё, что Вы хотите узнать о погоде Иваново!

Хотите узнать прогноз погоды Иваново? Тогда Вам сюда: Погода Иваново

Поиск расширенной информации на нашем сайте:

Другие новости

Новости СМИ2

Главная страница сайта

Новости сайта

03.07.2017

Напоминаем, что на нашем специализированном сайте Метеоцентр.Азия вы можете получить высокодетализированные автоматические прогнозы погоды по пунктам России, СНГ и мира в авиационном формате (включающие направление и скорость ветра, видимость, явления погоды, количество и форму облачности, нижнюю и верхнюю границу облачности).


Погода Иваново - сегодня

Время (UTC), дата Ветер
(°,м/с) 
Видим.   Явления Облачность Т
(°С)
Тd
(°С)
f(%) Тe
(°С)
Pmin
(гПа)
dP
(гПа)
Po
(мм)
O2
(г/м3)
Тmin Tmax R s Состояние
почвы
06 19.06.18 230 (ЮЗ) 10 км    ясно 
+24.5 +14 52 +32  1011.7  -0.9  748  274           
09 19.06.18 270 (З) 10 км    8/6 800 м средняя, верхняя 
[Cu med, cong|Ac trans|Ci fib]
+27.4 +10.1 34 +29  1010.5  -1.1  747  272           
18 19.06.18 230 (ЮЗ) 10 км  {гроза, ливн. осадки}  9/0 средняя, верхняя 
[Ac trans|Ci fib]
+19.4 +15.1 76 +29  1007.1  -1.1  744  277           
21 19.06.18 220 (ЮЗ) 10 км    10/0 средняя, верхняя 
[Ac trans|Ci fib]
+16.5 +13.6 83 +24  1005.8  -1.5  743  280           
03 20.06.18 290 (З) 7-14{14}  4000 м  слаб. ливневой дождь  10/10 480 м кучево-дожд. 
[Cb calv]
+14.6 +12.3 86 +19  1004.6  0.6  742  282  +14.6      влажная 
12 20.06.18 280 (З) 3{16}  10 км  гроза, ливневой дождь [макс. диам. градин 2 мм]  6/6 600 м кучево-дожд. 
[Cb cap]
+12.9 +8.4 74 +13  1005.6  -0.3  743  284           
21 20.06.18 270 (З) 10 км    4/0 верхняя 
[Ci fib]
+11.3 +5.8 69 +11  1007.2  0.8  744  287           
00 21.06.18 270 (З) 10 км    ясно 
+10.1 +5.9 75 +10  1007.8  0.5  745  288           
06 21.06.18 270 (З) 10 км    6/1 1500 м средняя, верхняя 
[Cu hum|Ac trans|Ci fib]
+17.1 +8.5 57 +17  1007.8  745  281           
09 21.06.18 280 (З) 4{12}  10 км    9/4 1000 м средняя 
[Cu Sc|Ac trans]
+17.9 +8.6 54 +18  1007.9  0.1  745  280           
18 21.06.18 260 (З) 2{10}  10 км    3/0 верхняя 
[Ci fib]
+15.2 +8.7 65 +16  1010.6  1.2  747  284           
21 21.06.18 300 (СЗ) 10 км    1/0 верхняя 
[Ci fib]
+12.1 +9.6 85 +14  1011.7  0.9  747  287           
06 22.06.18 200 (Ю) 10 км    3/0 верхняя 
[Ci fib]
+21 +12.9 60 +26  1012.1  -0.2  748  277           
09 22.06.18 200 (Ю) 10 км    6/4 600 м средняя, верхняя 
[Cu hum|Ac trans|Ci fib]
+25.2 +13.5 48 +31  1011.1  -0.8  748  273           
18 22.06.18 130 (ЮВ) 10 км    8/0 средняя, верхняя 
[Ac trans|Ci fib]
+20.1 +14 68 +27  1009  -0.7  746  277           
21 22.06.18 150 (ЮВ) 10 км    3/0 верхняя 
[Ci fib]
+17.9 +13 73 +24  1009.3  0.2  746  280           
00 23.06.18 200 (Ю) 10 км    1/0 верхняя 
[Ci fib]
+17 +12.6 75 +23  1010.2  0.8  747  281           
06 23.06.18 330 (СЗ) 10 км    6/3 600 м средняя, верхняя 
[Cu hum|Ac trans|Ci fib]
+23.9 +17.2 66 +37  1011.3  0.8  748  273           
09 23.06.18 010 (С) 10 км    8/5 800 м средняя, верхняя 
[Cu hum|Ac trans|Ci fib]
+27.3 +17.3 54 +40  1011.1  748  270           
18 23.06.18 070 (В) 10 км    5/0 верхняя 
[Ci fib]
+24.8 +19 70 +41  1009.8  -0.6  747  271           
21 23.06.18 120 (ЮВ) 10 км    3/0 верхняя 
[Ci fib]
+21.4 +17.3 77 +34  1010.6  0.6  747  275           
00 24.06.18 120 (ЮВ) 10 км    ясно 
+18.7 +16 84 +31  1010.7  0.1  747  278           
06 24.06.18 150 (ЮВ) 10 км    6/0 верхняя 
[Ci fib]
+27.6 +15.2 47 +37  1010.1  -0.2  747  270           
18 24.06.18 120 (ЮВ) 10 км    8/3 1500 м верхняя 
[Sc diur, vesp|Ci fib]
+25.9 +13.3 46 +32  1009.9  0.7  747  272           
21 24.06.18 110 (В) 10 км    ясно 
+22.4 +14 59 +30  1010.2  0.1  747  275           
Время (UTC), дата Ветер
(°,м/с) 
Видим.   Явления Облачность Т
(°С)
Тd
(°С)
f(%) Тe
(°С)
Pmin
(гПа)
dP
(гПа)
Po
(мм)
O2
(г/м3)
Тmin Tmax R s Состояние
почвы

Для получения пояснительной информации подведите курсор к названию столбца.

ПОГОДА Иваново - архив

Всё, что Вы хотите узнать о погоде Иваново - удобно и подробно!

Выберите нужную дату (начиная с 1 января 2015* года) и нажмите кнопку "Найти".
Будут отображены архивные сводки погоды по пункту Иваново, начиная с указанной даты.


Отображать данные в формате CSV (для использования в таблицах Excel)


Внимание! Наш архив погоды предназначен исключительно для личного некоммерческого использования в познавательных целях. Если Вам необходимы официальные справки о состоянии погоды (для производственных, юридических, коммерческих и т.п. целей), обращайтесь в органы Росгидромета.

*Примечание: данная дата относится к архиву по метеостанциям СССР (Россия, СНГ, Балтия).
Архив по метеостанциям Зарубежной Европы и Азии (кроме Китая) хранится 10 дней, по другим регионам земного шара (Китай, Африка, Америка, Австралия, Океания) - 1 день.

Иваново - район местоположения метеостанции


Название, широта, долгота, высота метеостанции:
Иваново (Южный) 56.9°ш. 40.1°д. 126 м над ур. моря [Российская Федерация]

Дополнительная информация

В oтличие oт бoльшинства пoгoдных сайтoв мы публикуем пoдрoбную метеoинфoрмацию в детальнoм прoфессиoнальнoм фoрмате.

Характеристики температуры и влажнoсти вoздуха измеряются на высoте 2 м в тени вдали oт зданий и деревьев.
Скoрoсть ветра измеряется на высoте 10 м (на урoвне рoста челoвека скoрoсть ветра ниже в 1.5-2 раза). Если метеoстанция нахoдится в гoрoде или в лесу, тo скoрoсть ветра занижена на 2-4 м/с пo сравнению с oткрытым местoм. Скoрoсть ветра над акватoриями крупных рек и oзёр, а также на вершинах хoлмoв на 2-5 м/с выше, чем в oбычных услoвиях.
Атмoсфернoе давление в разных тoчках местнoсти мoжет значительнo oтличаться oт давления на метеoстанции, в зависимoсти oт услoвий рельефа (при пoдъёме на 10 м давление пoнижается примернo на 1 мм рт.ст.).